Mmabatho, South Africa

4:39 AM SAST on April 23, 2018 (GMT +0200)
Mmabatho

Weather History for FAMM - October, 2012

Change the Weather History Date:

Thursday, October 11, 2012

  Actual Average Record
Temperature  
Mean Temperature 74 °F -  
Max Temperature 90 °F - - ()
Min Temperature 57 °F - - ()
Cooling Degree Days 8    
Growing Degree Days 24 (Base 50)    
Moisture  
Dew Point 38 °F    
Average Humidity 27    
Maximum Humidity 56    
Minimum Humidity 8    
Precipitation  
Precipitation 0.08 in - - ()
Sea Level Pressure  
Sea Level Pressure 30.03 in    
Wind  
Wind Speed 5 mph ()    
Max Wind Speed 13 mph    
Max Gust Speed 25 mph    
Visibility 10.1 miles    
Events Rain , Thunderstorm    
T = Trace of Precipitation, MM = Missing Value Source: Averaged Metar Reports

Daily Weather History Graph

Daily Weather History Graph

Search for Another Location

Airport or City:

Astronomy

Oct. 11, 2012 Rise Set
Actual Time 5:46 AM SAST 6:22 PM SAST
Civil Twilight 5:23 AM SAST 6:45 PM SAST
Nautical Twilight 4:56 AM SAST 7:13 PM SAST
Astronomical Twilight 4:28 AM SAST 7:40 PM SAST
Moon 2:39 AM SAST (10/11) 2:25 PM SAST (10/11)
Length of Visible Light 13h 22m
Length of Day
12h 35m
Waning Crescent, 20% of the Moon is Illuminated
Oct 11
Waning Crescent
Oct 15
New
Oct 22
First Quarter
Oct 29
Full
Nov 7
Last Quarter

Hourly Weather History & Observations

Time (SAST) Temp. Dew Point Humidity Pressure Visibility Wind Dir Wind Speed Gust Speed Precip Events Conditions
12:00 AM 69.8 °F 21.2 °F 16% 30.04 in - SW 5.8 mph - N/A   Unknown
1:00 AM 68.0 °F 23.0 °F 18% 30.04 in - SW 3.5 mph - N/A   Unknown
2:00 AM 67 °F 21 °F 8%  in - East 3.5 mph - -  
3:00 AM 64.4 °F 21.2 °F 19% 30.01 in - SE 2.3 mph - N/A   Unknown
4:00 AM 60.8 °F 24.8 °F 25% 30.04 in - NE 2.3 mph - N/A   Unknown
5:00 AM 61 °F 28 °F 17%  in 19 mi ESE 3.5 mph - -   Scattered Clouds
5:00 AM 59.0 °F 28.4 °F 31% 30.04 in - ESE 2.3 mph - N/A   Unknown
6:00 AM 59.0 °F 28.4 °F 31% 30.06 in - NNE 5.8 mph - N/A   Clear
7:00 AM 62.6 °F 28.4 °F 27% 30.06 in - NNE 5.8 mph - N/A   Clear
8:00 AM 70 °F 32 °F 14%  in 19 mi North 2.3 mph - -   Scattered Clouds
8:00 AM 69.8 °F 32.0 °F 25% 30.09 in - North 2.3 mph - N/A   Clear
8:40 AM 73.4 °F 32.0 °F 22% 30.06 in - North 5.8 mph - N/A   Clear
9:00 AM 75.2 °F 35.6 °F 24% 30.09 in - North 6.9 mph - N/A   Clear
9:41 AM 78.8 °F 46.4 °F 32% 30.06 in - NNW 5.8 mph - N/A   Clear
10:00 AM 78.8 °F 46.4 °F 32% 30.06 in - NNW 5.8 mph - N/A   Clear
11:00 AM 84.2 °F 42.8 °F 23% 30.06 in 6.2 mi WNW 8.1 mph - N/A   Partly Cloudy
12:00 PM 86.0 °F 41.0 °F 20% 30.04 in 6.2 mi NW 6.9 mph - N/A   Scattered Clouds
1:00 PM 86.0 °F 35.6 °F 17% 30.01 in 6.2 mi West 11.5 mph - N/A   Partly Cloudy
2:00 PM 88 °F 35 °F 8%  in 19 mi NW 12.7 mph - - Thunderstorm Thunderstorm
2:00 PM 86.0 °F 33.8 °F 15% 29.98 in 6.2 mi NW 12.7 mph 25.3 mph N/A Thunderstorm Light Thunderstorm
2:38 PM 75.2 °F 48.2 °F 38% 30.01 in 5.0 mi West 6.9 mph - N/A Rain , Thunderstorm Thunderstorms and Rain
3:00 PM 77.0 °F 51.8 °F 41% 29.98 in 5.6 mi WNW 8.1 mph - N/A Rain , Thunderstorm Thunderstorms and Rain
3:21 PM 82.4 °F 46.4 °F 28% 29.95 in 6.2 mi NW 3.5 mph - N/A   Partly Cloudy
4:00 PM 84.2 °F 39.2 °F 20% 29.95 in 6.2 mi West 6.9 mph - N/A   Partly Cloudy
5:00 PM 84 °F 42 °F 13%  in 19 mi South 3.5 mph - -   Scattered Clouds
5:00 PM 82.4 °F 41.0 °F 23% 29.95 in 6.2 mi South 2.3 mph - N/A   Scattered Clouds
7:00 PM 75.2 °F 50.0 °F 41% 30.04 in 6.2 mi NW 4.6 mph - N/A   Partly Cloudy
8:00 PM 73 °F 50 °F 33%  in 19 mi North 9.2 mph - -   Scattered Clouds
8:00 PM 73.4 °F 48.2 °F 41% 30.06 in 6.2 mi North 9.2 mph - N/A   Partly Cloudy
9:00 PM 69.8 °F 50.0 °F 49% 30.06 in - NNW 4.6 mph - N/A   Unknown
10:00 PM 69.8 °F 50.0 °F 49% 30.06 in - North 3.5 mph - N/A   Unknown
11:00 PM 68 °F 53 °F 47%  in - NNE 5.8 mph - -  
11:00 PM 68.0 °F 51.8 °F 56% 30.09 in - NNE 4.6 mph - N/A   Unknown